Location: Richmond
(37.5536°N, 77.4606°W)
Time: 20:50:51
(UTC-04:00)

ISS - Visible Passes

Search period start: 26 July 2017 00:00
Search period end: 05 August 2017 00:00
Orbit: 400 x 408 km, 51.6° (Epoch: 27 July)

Date Brightness Start Highest point End Pass type
(mag) Time Alt. Az. Time Alt. Az. Time Alt. Az.
26 Jul -2.9 20:56:14 10° WSW 20:59:25 52° NW 21:02:37 10° NE visible
26 Jul -0.4 22:35:19 10° NW 22:36:30 11° NNW 22:37:41 10° N visible
27 Jul -0.7 21:41:46 10° WNW 21:43:54 16° NNW 21:46:02 10° NNE visible
28 Jul -1.3 20:48:39 10° W 20:51:23 24° NNW 20:54:07 10° NNE visible
29 Jul -0.4 21:35:29 10° NNW 21:36:05 10° NNW 21:36:41 10° N visible
01 Aug -0.3 23:48:38 10° NNW 23:48:51 11° NNW 23:48:51 11° NNW visible
02 Aug -0.9 22:56:49 10° N 22:58:09 12° NNE 22:58:09 12° NNE visible
03 Aug -0.3 23:39:50 10° NNW 23:40:05 12° NNW 23:40:05 12° NNW visible
04 Aug -1.3 22:47:44 10° NNW 22:49:26 19° N 22:49:26 19° N visible
